Regional Weather Roundup
Issued by NWS Nashville, TN

Home | Current Version | Previous Version | Text Only | Print | Product List | Glossary On
Versions: 1 2 3 4 5 6 7 8 9 10 11 12 13 14 15 16 17 18 19 20 21 22 23 24 25 26 27
000
ASUS44 KOHX 261410
RWROHX
MIDDLE TENNESSEE HOURLY WEATHER ROUNDUP
NATIONAL WEATHER SERVICE NASHVILLE TN
900 AM CDT SUN MAR 26 2017

NOTE: "FAIR" INDICATES FEW OR NO CLOUDS BELOW 12,000 FEET WITH
NO SIGNIFICANT WEATHER AND/OR OBSTRUCTIONS TO VISIBILITY.

* THESE REPORTS ARE NOT UNDER NWS QUALITY CONTROL AND MAY NOT
  REPORT WEATHER SUCH AS PRECIPITATION AND FOG.


TNZ005>011-023>034-057-059-062>066-078-080-261500
...NORTHERN MIDDLE TENNESSEE...

CITY           SKY/WX    TMP DP  RH WIND       PRES   REMARKS
CLARKSVILLE    CLOUDY    59  55  87 S8        29.98S
CROSSVILLE     CLOUDY    58  53  84 S10G20    30.06S
GALLATIN       CLOUDY    61  57  88 S8G15     30.04S
NASHVILLE      CLOUDY    61  57  87 S9        30.02R
PORTLAND       CLOUDY    59  57  94 S10       30.01R
SMYRNA         CLOUDY    60  58  92 S7        30.03S
SPARTA         CLOUDY    61  55  82 S9        30.03R
SPRINGFIELD    CLOUDY    59  57  94 S10       29.99S
WEST NASHVILLE CLOUDY    59  55  88 S8        30.01S
$$
TNZ056-058-060-061-075>077-079-093>097-261500
...SOUTHERN MIDDLE TENNESSEE...

CITY           SKY/WX    TMP DP  RH WIND       PRES   REMARKS
COLUMBIA       CLOUDY   N/A N/A N/A S7        30.00S
FAYETTEVILLE   CLOUDY    59  57  94 S10       30.04S
MCMINNVILLE    CLOUDY    61  55  82 S6        30.04R
SHELBYVILLE    CLOUDY   N/A N/A N/A MISG      30.04S
TULLAHOMA      CLOUDY    57  55  94 S5        30.05R
WINCHESTER     CLOUDY    59  55  88 S9        30.05S
$$


...KEY TO REMARKS...
VSB - VISIBILITY IN MILES
WCI - WIND CHILL INDEX
HX  - HEAT INDEX





USA.gov is the U.S. government's official web portal to all federal, state and local government web resources and services.